Weather History for LFBO - January, 2014

Change the Weather History Date:

Thursday, January 9, 2014

  Actual Average Record
Temperature  
Mean Temperature 54 °F -  
Max Temperature 57 °F 48 °F 61 °F (2015)
Min Temperature 50 °F 35 °F 23 °F (2009)
Degree Days  
Heating Degree Days 12    
Growing Degree Days 4 (Base 50)    
Moisture  
Dew Point 48 °F    
Average Humidity 79    
Maximum Humidity 88    
Minimum Humidity 62    
Precipitation  
Precipitation 0.00 in 0.07 in - ()
Sea Level Pressure  
Sea Level Pressure 30.09 in    
Wind  
Wind Speed 14 mph ()    
Max Wind Speed 18 mph    
Max Gust Speed 26 mph    
Visibility 6.9 miles    
Events      
Averages and records for this station are not official NWS values.
T = Trace of Precipitation, MM = Missing Value Source: Averaged Metar Reports

Daily Weather History Graph

Daily Weather History Graph

Search for Another Location

Airport or City:

Trip Planner

Search our weather history database for the weather conditions in past years. The results will help you decide how hot, cold, wet, or windy it might be!

Date:

Astronomy

Jan. 09, 2014 Rise Set
Actual Time 8:27 AM CET 5:36 PM CET
Civil Twilight 7:54 AM CET 6:08 PM CET
Nautical Twilight 7:19 AM CET 6:44 PM CET
Astronomical Twilight 6:44 AM CET 7:18 PM CET
Moon 12:58 PM CET (1/9) 2:14 AM CET (1/9)
Length of Visible Light 10h 13m
Length of Day
9h 09m
Waxing Gibbous, 63% of the Moon is Illuminated
Jan 9
Waxing Gibbous
Jan 16
Full
Jan 24
Last Quarter
Jan 30
New
Feb 6
First Quarter

Hourly Weather History & Observations

Time (CET) Temp. Dew Point Humidity Pressure Visibility Wind Dir Wind Speed Gust Speed Precip Events Conditions
12:00 AM 52 °F 47 °F 78% 30.15 in 28 mi SE 11.5 mph - -   Clear
12:00 AM 51.8 °F 46.4 °F 82% 30.12 in 6.2 mi SE 11.5 mph - N/A   Unknown
12:30 AM 51.8 °F 48.2 °F 88% 30.12 in 6.2 mi SE 15.0 mph - N/A   Unknown
1:00 AM 53 °F 48 °F 77% 30.13 in 25 mi SE 15.0 mph - -   Clear
1:00 AM 51.8 °F 48.2 °F 88% 30.12 in 6.2 mi SE 15.0 mph 26.5 mph N/A   Partly Cloudy
1:30 AM 51.8 °F 48.2 °F 88% 30.09 in 6.2 mi SE 15.0 mph - N/A   Mostly Cloudy
2:00 AM 53 °F 48 °F 76% 30.12 in 28 mi SE 16.1 mph - -   Clear
2:00 AM 53.6 °F 48.2 °F 82% 30.09 in 6.2 mi SE 16.1 mph - N/A   Overcast
2:30 AM 51.8 °F 48.2 °F 88% 30.09 in 6.2 mi SE 15.0 mph - N/A   Unknown
3:00 AM 53 °F 48 °F 76% 30.12 in 28 mi SE 16.1 mph - -   Clear
3:00 AM 53.6 °F 48.2 °F 82% 30.09 in 6.2 mi SE 16.1 mph - N/A   Unknown
3:30 AM 51.8 °F 48.2 °F 88% 30.09 in 6.2 mi SE 13.8 mph - N/A   Mostly Cloudy
4:00 AM 53 °F 47 °F 75% 30.12 in 28 mi SE 15.0 mph - -   Clear
4:00 AM 51.8 °F 48.2 °F 88% 30.09 in 6.2 mi SE 15.0 mph - N/A   Partly Cloudy
4:30 AM 51.8 °F 48.2 °F 88% 30.09 in 6.2 mi SE 16.1 mph - N/A   Mostly Cloudy
5:00 AM 52 °F 48 °F 81% 30.11 in 25 mi SSE 16.1 mph - -   Clear
5:00 AM 51.8 °F 48.2 °F 88% 30.09 in 6.2 mi SSE 16.1 mph - N/A   Mostly Cloudy
5:30 AM 51.8 °F 48.2 °F 88% 30.09 in 6.2 mi SE 16.1 mph - N/A   Mostly Cloudy
6:00 AM 52 °F 48 °F 82% 30.11 in 22 mi SE 16.1 mph - -   Clear
6:00 AM 51.8 °F 48.2 °F 88% 30.09 in 6.2 mi SE 16.1 mph - N/A   Mostly Cloudy
6:30 AM 51.8 °F 48.2 °F 88% 30.09 in 6.2 mi SE 17.3 mph - N/A   Overcast
7:00 AM 52 °F 48 °F 80% 30.10 in 12 mi SE 17.3 mph - -   Overcast
7:00 AM 51.8 °F 48.2 °F 88% 30.09 in 6.2 mi SE 17.3 mph - N/A   Overcast
7:30 AM 51.8 °F 48.2 °F 88% 30.09 in 6.2 mi SE 13.8 mph - N/A   Overcast
8:00 AM 52 °F 47 °F 79% 30.12 in 12 mi SE 13.8 mph - -   Scattered Clouds
8:00 AM 51.8 °F 48.2 °F 88% 30.09 in 6.2 mi SE 13.8 mph - N/A   Mostly Cloudy
8:30 AM 51.8 °F 48.2 °F 88% 30.09 in 6.2 mi SE 12.7 mph - N/A   Mostly Cloudy
9:00 AM 52 °F 47 °F 79% 30.12 in 16 mi SE 16.1 mph - -   Scattered Clouds
9:00 AM 51.8 °F 48.2 °F 88% 30.09 in 6.2 mi SE 16.1 mph - N/A   Mostly Cloudy
9:30 AM 51.8 °F 48.2 °F 88% 30.09 in 6.2 mi SE 15.0 mph - N/A   Mostly Cloudy
10:00 AM 52 °F 48 °F 81% 30.14 in 19 mi SE 13.8 mph - -   Scattered Clouds
10:00 AM 51.8 °F 48.2 °F 88% 30.12 in 6.2 mi SE 13.8 mph - N/A   Mostly Cloudy
10:30 AM 53.6 °F 48.2 °F 82% 30.12 in 6.2 mi SE 12.7 mph - N/A   Mostly Cloudy
11:00 AM 53 °F 48 °F 76% 30.14 in 22 mi SE 16.1 mph - -   Scattered Clouds
11:00 AM 53.6 °F 48.2 °F 82% 30.12 in 6.2 mi SE 16.1 mph - N/A   Scattered Clouds
11:30 AM 53.6 °F 48.2 °F 82% 30.12 in 6.2 mi SE 16.1 mph - N/A   Mostly Cloudy
12:00 PM 54 °F 48 °F 73% 30.13 in 22 mi SE 18.4 mph - -   Scattered Clouds
12:00 PM 55.4 °F 48.2 °F 77% 30.12 in 6.2 mi SE 18.4 mph - N/A   Partly Cloudy
12:30 PM 55.4 °F 48.2 °F 77% 30.09 in 6.2 mi SE 17.3 mph - N/A   Partly Cloudy
1:00 PM 56 °F 49 °F 69% 30.10 in 22 mi SE 16.1 mph - -   Scattered Clouds
1:00 PM 57.2 °F 48.2 °F 72% 30.09 in 6.2 mi SE 16.1 mph - N/A   Unknown
1:30 PM 57.2 °F 48.2 °F 72% 30.06 in 6.2 mi SE 15.0 mph - N/A   Unknown
2:00 PM 57 °F 48 °F 64% 30.07 in 25 mi SE 17.3 mph - -   Scattered Clouds
2:00 PM 57.2 °F 48.2 °F 72% 30.06 in 6.2 mi SE 17.3 mph - N/A   Unknown
2:30 PM 57.2 °F 48.2 °F 72% 30.06 in 6.2 mi SE 17.3 mph - N/A   Unknown
3:00 PM 56 °F 48 °F 66% 30.06 in 25 mi SE 18.4 mph - -   Scattered Clouds
3:00 PM 57.2 °F 48.2 °F 72% 30.04 in 6.2 mi SE 18.4 mph - N/A   Unknown
3:30 PM 57.2 °F 48.2 °F 72% 30.04 in 6.2 mi SE 16.1 mph - N/A   Unknown
4:00 PM 57 °F 47 °F 62% 30.06 in 25 mi SE 15.0 mph - -   Scattered Clouds
4:00 PM 57.2 °F 48.2 °F 72% 30.04 in 6.2 mi SE 15.0 mph - N/A   Unknown
4:30 PM 55.4 °F 46.4 °F 72% 30.06 in 6.2 mi SE 15.0 mph - N/A   Unknown
5:00 PM 55 °F 47 °F 65% 30.07 in 25 mi SSE 12.7 mph - -   Scattered Clouds
5:00 PM 55.4 °F 46.4 °F 72% 30.06 in 6.2 mi SSE 12.7 mph - N/A   Partly Cloudy
5:30 PM 53.6 °F 46.4 °F 77% 30.06 in 6.2 mi SSE 12.7 mph - N/A   Mostly Cloudy
6:00 PM 53 °F 47 °F 72% 30.08 in 22 mi SSE 11.5 mph - -   Scattered Clouds
6:00 PM 53.6 °F 46.4 °F 77% 30.06 in 6.2 mi SSE 11.5 mph - N/A   Unknown
6:30 PM 53.6 °F 46.4 °F 77% 30.06 in 6.2 mi SSE 10.4 mph - N/A   Overcast
7:00 PM 53 °F 46 °F 71% 30.09 in 22 mi SSE 11.5 mph - -   Partly Cloudy
7:00 PM 51.8 °F 46.4 °F 82% 30.06 in 6.2 mi SSE 11.5 mph - N/A   Overcast
7:30 PM 51.8 °F 46.4 °F 82% 30.09 in 6.2 mi SSE 11.5 mph - N/A   Unknown
8:00 PM 52 °F 46 °F 73% 30.11 in 22 mi SSE 11.5 mph - -   Clear
8:00 PM 51.8 °F 46.4 °F 82% 30.09 in 6.2 mi SSE 11.5 mph - N/A   Overcast
8:30 PM 51.8 °F 46.4 °F 82% 30.09 in 6.2 mi SSE 11.5 mph - N/A   Unknown
9:00 PM 52 °F 46 °F 73% 30.12 in 22 mi SSE 11.5 mph - -   Clear
9:00 PM 51.8 °F 46.4 °F 82% 30.09 in 6.2 mi SSE 11.5 mph - N/A   Unknown
9:30 PM 51.8 °F 46.4 °F 82% 30.09 in 6.2 mi SSE 9.2 mph - N/A   Unknown
10:00 PM 50.0 °F 44.6 °F 82% 30.12 in 6.2 mi SE 9.2 mph - N/A   Unknown
10:30 PM 50.0 °F 44.6 °F 82% 30.12 in 6.2 mi SSE 10.4 mph - N/A   Unknown
11:00 PM 50.0 °F 46.4 °F 87% 30.12 in 6.2 mi SSE 10.4 mph - N/A   Unknown